Preview of NWS' New Version of Forecast
This preview is not operational and should not be used for support decisions.

Regional Weather Roundup (RWR)

Issued by National Weather Service (NWS)

                            
000
ASUS43 KBIS 182310
RWRND 

NORTH DAKOTA REGIONAL WEATHER ROUNDUP
NATIONAL WEATHER SERVICE BISMARCK ND
500 PM CST MON FEB 18 2019

NOTE: "FAIR" INDICATES FEW OR NO CLOUDS BELOW 12,000 FEET WITH NO
SIGNIFICANT WEATHER AND/OR OBSTRUCTIONS TO VISIBILITY.


NDZ001>003-009>011-017-190000-
NORTHWEST NORTH DAKOTA
  
CITY           SKY/WX    TMP DP  RH WIND       PRES   REMARKS
WILLISTON      PTSUNNY    3  -5  69 W7        30.39F WCI  -9          
MINOT          CLOUDY     2  -4  76 CALM      30.41F                  
MINOT AFB      MOSUNNY    3  -3  76 SE3       30.41F                  
$$
 
NDZ018>021-031>035-040>046-190000-
SOUTHWEST NORTH DAKOTA
  
CITY           SKY/WX    TMP DP  RH WIND       PRES   REMARKS
BISMARCK       LGT SNOW   6   1  80 SE5       30.45F WCI  -3          
DICKINSON      SUNNY      2  -5  72 W6        30.31F WCI  -9          
GARRISON         N/A      3  -2  79 CALM      30.40F                  
HETTINGER ARPT SUNNY     -1  -7  75 W7        30.34S WCI -14          
$$
 
NDZ004>008-012>016-024-026-027-054-190000-
NORTHEAST NORTH DAKOTA
  
CITY           SKY/WX    TMP DP  RH WIND       PRES   REMARKS
GRAND FORKS    PTCLDY    -2  -9  72 NW5       30.55S WCI -12          
GRND FRKS AFB  CLEAR      0  -8  69 CALM      30.54S                  
DEVILS LAKE    CLEAR      0  -6  76 SW3       30.48F                  
$$
 
NDZ022-023-025-028>030-036>039-047>053-190000-
SOUTHEAST NORTH DAKOTA
  
CITY           SKY/WX    TMP DP  RH WIND       PRES   REMARKS
FARGO          PTCLDY     1  -5  75 N6        30.54S WCI -10          
JAMESTOWN      CLOUDY     2  -4  76 N5        30.47S WCI  -8          
$$